{"data":{"norad_id":58804,"intl_designator":"2024-012T","name":"STARLINK-31188","alt_names":[],"object_type":"PAYLOAD","status":"ACTIVE","operator":null,"country":"US","launch_date":"2024-01-15","launch_site_code":"AFETR","launch_vehicle":null,"mission":null,"orbit_class":"UNKNOWN","rcs_meters":null,"size_class":null,"mass_kg":null,"dimensions":null,"purposes":["comms"],"wikipedia_slug":null,"has_3d_model":false,"image_url":null,"decayed_at":null,"tle_current":{"epoch":"2026-05-24T23:43:33.201408Z","epoch_age_seconds":72710,"freshness":"FRESH","line1":"1 58804U 24012T   26144.98857872  .00002873  00000+0  11388-3 0  9998","line2":"2 58804  43.0037  94.4556 0001577 267.2349  92.8323 15.27577787132908","mean_motion":15.27577787,"eccentricity":0.0001577,"inclination_deg":43.0037,"raan_deg":94.4556,"arg_perigee_deg":267.2349,"mean_anomaly_deg":92.8323,"bstar":0.00011388,"rev_number":13290,"period_min":94.266885277771,"perigee_km":481.97371247343,"apogee_km":484.13773265812,"semimajor_km":6861.1927225658,"source":"CELESTRAK","updated_at":"2026-05-25T13:38:18.751586Z"}}}